Time,TemperatureF,DewpointF,PressureIn,WindDirection,WindDirectionDegrees,WindSpeedMPH,WindSpeedGustMPH,Humidity,HourlyPrecipIn,Conditions,Clouds,dailyrainin,SoftwareType,DateUTC
2013-05-08 00:11:00,57.0,47.0,30.00,NW,319,0.0,-999.0,70,-99.99,,,0.00,weatherlink.com 1.10,2013-05-08 07:11:00,
2013-05-08 00:26:00,56.3,47.0,29.99,NW,319,0.0,-999.0,71,-99.99,,,0.00,weatherlink.com 1.10,2013-05-08 07:26:00,
2013-05-08 00:41:00,55.6,47.0,29.99,NW,319,0.0,-999.0,72,-99.99,,,0.00,weatherlink.com 1.10,2013-05-08 07:41:00,
2013-05-08 00:56:00,54.8,46.0,30.00,NW,319,0.0,-999.0,73,-99.99,,,0.00,weatherlink.com 1.10,2013-05-08 07:56:00,
2013-05-08 01:11:00,53.9,47.0,30.00,NW,319,0.0,-999.0,78,-99.99,,,0.00,weatherlink.com 1.10,2013-05-08 08:11:00,
2013-05-08 01:26:00,53.2,47.0,30.00,NW,319,0.0,-999.0,78,-99.99,,,0.00,weatherlink.com 1.10,2013-05-08 08:26:00,
2013-05-08 01:41:00,52.5,47.0,30.00,NW,319,0.0,-999.0,80,-99.99,,,0.00,weatherlink.com 1.10,2013-05-08 08:41:00,
2013-05-08 01:56:00,51.9,46.0,30.01,NW,319,0.0,-999.0,81,-99.99,,,0.00,weatherlink.com 1.10,2013-05-08 08:56:00,
2013-05-08 02:11:00,51.1,46.0,30.01,NW,319,0.0,-999.0,83,-99.99,,,0.00,weatherlink.com 1.10,2013-05-08 09:11:00,
2013-05-08 02:26:00,50.8,46.0,30.01,NW,319,0.0,-999.0,84,-99.99,,,0.00,weatherlink.com 1.10,2013-05-08 09:26:00,
2013-05-08 02:41:00,50.8,47.0,30.01,NW,319,0.0,-999.0,85,-99.99,,,0.00,weatherlink.com 1.10,2013-05-08 09:41:00,
2013-05-08 02:56:00,51.0,47.0,30.01,NW,319,0.0,-999.0,86,-99.99,,,0.00,weatherlink.com 1.10,2013-05-08 09:56:00,
2013-05-08 03:11:00,51.3,48.0,30.01,NW,319,0.0,-999.0,87,-99.99,,,0.00,weatherlink.com 1.10,2013-05-08 10:11:00,
2013-05-08 03:26:00,51.6,48.0,30.01,NW,319,0.0,-999.0,87,-99.99,,,0.00,weatherlink.com 1.10,2013-05-08 10:26:00,
2013-05-08 03:41:00,51.9,48.0,30.01,NW,319,0.0,-999.0,87,-99.99,,,0.00,weatherlink.com 1.10,2013-05-08 10:41:00,
2013-05-08 03:56:00,52.0,48.0,30.01,NW,319,0.0,-999.0,87,-99.99,,,0.00,weatherlink.com 1.10,2013-05-08 10:56:00,
2013-05-08 04:11:00,52.2,49.0,30.02,NW,319,0.0,-999.0,87,-99.99,,,0.00,weatherlink.com 1.10,2013-05-08 11:11:00,
2013-05-08 04:26:00,52.3,49.0,30.01,NW,319,0.0,-999.0,87,-99.99,,,0.00,weatherlink.com 1.10,2013-05-08 11:26:00,
2013-05-08 04:41:00,52.3,48.0,30.01,NW,319,0.0,-999.0,86,-99.99,,,0.00,weatherlink.com 1.10,2013-05-08 11:41:00,
2013-05-08 04:56:00,52.2,48.0,30.02,NW,319,0.0,-999.0,86,-99.99,,,0.00,weatherlink.com 1.10,2013-05-08 11:56:00,
2013-05-08 05:11:00,52.2,48.0,30.02,NW,319,0.0,-999.0,86,-99.99,,,0.00,weatherlink.com 1.10,2013-05-08 12:11:00,
2013-05-08 05:26:00,52.3,49.0,30.02,NW,319,0.0,-999.0,87,-99.99,,,0.00,weatherlink.com 1.10,2013-05-08 12:26:00,
2013-05-08 05:41:00,52.5,49.0,30.03,NW,319,0.0,-999.0,87,-99.99,,,0.00,weatherlink.com 1.10,2013-05-08 12:41:00,
2013-05-08 05:56:00,52.5,49.0,30.03,NW,319,0.0,-999.0,87,-99.99,,,0.00,weatherlink.com 1.10,2013-05-08 12:56:00,
2013-05-08 06:11:00,52.5,49.0,30.04,NW,319,0.0,-999.0,87,-99.99,,,0.00,weatherlink.com 1.10,2013-05-08 13:11:00,
2013-05-08 06:26:00,52.6,49.0,30.04,NW,318,0.0,-999.0,87,-99.99,,,0.00,weatherlink.com 1.10,2013-05-08 13:26:00,
2013-05-08 06:41:00,52.6,49.0,30.04,SSW,196,0.0,-999.0,88,-99.99,,,0.00,weatherlink.com 1.10,2013-05-08 13:41:00,
2013-05-08 06:56:00,52.8,49.0,30.05,East,88,0.0,-999.0,88,-99.99,,,0.00,weatherlink.com 1.10,2013-05-08 13:56:00,
2013-05-08 07:11:00,53.1,49.0,30.05,WNW,300,0.0,-999.0,87,-99.99,,,0.00,weatherlink.com 1.10,2013-05-08 14:11:00,
2013-05-08 07:26:00,53.2,50.0,30.05,WNW,298,0.0,-999.0,87,-99.99,,,0.00,weatherlink.com 1.10,2013-05-08 14:26:00,
2013-05-08 07:41:00,53.5,50.0,30.05,SE,126,0.0,-999.0,86,-99.99,,,0.00,weatherlink.com 1.10,2013-05-08 14:41:00,
2013-05-08 07:56:00,53.6,50.0,30.06,East,101,0.0,-999.0,86,-99.99,,,0.00,weatherlink.com 1.10,2013-05-08 14:56:00,
2013-05-08 08:11:00,53.9,50.0,30.07,SSW,200,2.0,-999.0,85,-99.99,,,0.00,weatherlink.com 1.10,2013-05-08 15:11:00,
2013-05-08 08:26:00,54.1,50.0,30.07,SW,221,0.0,-999.0,85,-99.99,,,0.00,weatherlink.com 1.10,2013-05-08 15:26:00,
2013-05-08 08:41:00,54.4,50.0,30.07,East,101,0.0,-999.0,84,-99.99,,,0.00,weatherlink.com 1.10,2013-05-08 15:41:00,
2013-05-08 08:56:00,54.5,50.0,30.08,ESE,103,0.0,-999.0,84,-99.99,,,0.00,weatherlink.com 1.10,2013-05-08 15:56:00,
2013-05-08 09:11:00,55.0,50.0,30.08,East,98,0.0,-999.0,83,-99.99,,,0.00,weatherlink.com 1.10,2013-05-08 16:11:00,
2013-05-08 09:26:00,55.3,50.0,30.08,South,173,1.0,-999.0,82,-99.99,,,0.00,weatherlink.com 1.10,2013-05-08 16:26:00,
2013-05-08 09:41:00,55.7,50.0,30.08,SSE,167,2.0,-999.0,82,-99.99,,,0.00,weatherlink.com 1.10,2013-05-08 16:41:00,
2013-05-08 09:56:00,55.9,50.0,30.08,SSE,156,0.0,-999.0,81,-99.99,,,0.00,weatherlink.com 1.10,2013-05-08 16:56:00,
2013-05-08 10:11:00,56.2,50.0,30.08,NNE,13,0.0,-999.0,80,-99.99,,,0.00,weatherlink.com 1.10,2013-05-08 17:11:00,
2013-05-08 10:26:00,56.5,50.0,30.09,North,355,0.0,-999.0,79,-99.99,,,0.00,weatherlink.com 1.10,2013-05-08 17:26:00,
2013-05-08 10:41:00,57.3,51.0,30.08,SSE,149,1.0,-999.0,80,-99.99,,,0.00,weatherlink.com 1.10,2013-05-08 17:41:00,
2013-05-08 10:56:00,58.3,51.0,30.08,SSE,164,0.0,-999.0,76,-99.99,,,0.00,weatherlink.com 1.10,2013-05-08 17:56:00,
2013-05-08 11:11:00,59.2,51.0,30.09,SSE,166,4.0,-999.0,74,-99.99,,,0.00,weatherlink.com 1.10,2013-05-08 18:11:00,
2013-05-08 11:26:00,61.0,52.0,30.09,SSE,155,0.0,-999.0,71,-99.99,,,0.00,weatherlink.com 1.10,2013-05-08 18:26:00,
2013-05-08 11:42:00,62.9,52.0,30.08,South,182,3.0,-999.0,67,-99.99,,,0.00,weatherlink.com 1.10,2013-05-08 18:42:00,
2013-05-08 11:57:00,63.7,52.0,30.08,South,188,3.0,-999.0,65,-99.99,,,0.00,weatherlink.com 1.10,2013-05-08 18:57:00,
2013-05-08 12:12:00,65.2,53.0,30.08,SE,142,3.0,-999.0,64,-99.99,,,0.00,weatherlink.com 1.10,2013-05-08 19:12:00,
2013-05-08 12:27:00,66.1,53.0,30.07,SSE,150,2.0,-999.0,62,-99.99,,,0.00,weatherlink.com 1.10,2013-05-08 19:27:00,
2013-05-08 12:42:00,67.1,53.0,30.07,SW,227,0.0,-999.0,61,-99.99,,,0.00,weatherlink.com 1.10,2013-05-08 19:42:00,
2013-05-08 12:57:00,69.3,53.0,30.06,NW,324,0.0,-999.0,57,-99.99,,,0.00,weatherlink.com 1.10,2013-05-08 19:57:00,
2013-05-08 13:12:00,69.9,53.0,30.06,NNW,339,0.0,-999.0,55,-99.99,,,0.00,weatherlink.com 1.10,2013-05-08 20:12:00,
2013-05-08 13:27:00,69.9,53.0,30.06,NW,320,0.0,-999.0,55,-99.99,,,0.00,weatherlink.com 1.10,2013-05-08 20:27:00,
2013-05-08 13:42:00,70.4,54.0,30.06,North,360,0.0,-999.0,56,-99.99,,,0.00,weatherlink.com 1.10,2013-05-08 20:42:00,
2013-05-08 13:57:00,70.8,54.0,30.05,NNW,344,0.0,-999.0,55,-99.99,,,0.00,weatherlink.com 1.10,2013-05-08 20:57:00,
2013-05-08 14:12:00,70.9,53.0,30.05,NW,306,0.0,-999.0,54,-99.99,,,0.00,weatherlink.com 1.10,2013-05-08 21:12:00,
2013-05-08 14:27:00,71.6,53.0,30.05,NW,305,0.0,-999.0,52,-99.99,,,0.00,weatherlink.com 1.10,2013-05-08 21:27:00,
2013-05-08 14:42:00,72.7,53.0,30.05,NNE,27,0.0,-999.0,51,-99.99,,,0.00,weatherlink.com 1.10,2013-05-08 21:42:00,
2013-05-08 14:57:00,73.0,53.0,30.05,ENE,64,0.0,-999.0,50,-99.99,,,0.00,weatherlink.com 1.10,2013-05-08 21:57:00,
2013-05-08 15:12:00,73.3,54.0,30.04,NNE,27,0.0,-999.0,51,-99.99,,,0.00,weatherlink.com 1.10,2013-05-08 22:12:00,
2013-05-08 15:27:00,73.7,54.0,30.03,NNE,27,0.0,-999.0,50,-99.99,,,0.00,weatherlink.com 1.10,2013-05-08 22:27:00,
2013-05-08 15:42:00,74.6,55.0,30.02,ENE,59,0.0,-999.0,50,-99.99,,,0.00,weatherlink.com 1.10,2013-05-08 22:42:00,
2013-05-08 15:57:00,74.6,54.0,30.02,NW,315,0.0,-999.0,48,-99.99,,,0.00,weatherlink.com 1.10,2013-05-08 22:57:00,
2013-05-08 16:12:00,73.2,53.0,30.02,SW,234,10.0,-999.0,49,-99.99,,,0.00,weatherlink.com 1.10,2013-05-08 23:12:00,
2013-05-08 16:27:00,72.3,53.0,30.01,WNW,290,3.0,-999.0,50,-99.99,,,0.00,weatherlink.com 1.10,2013-05-08 23:27:00,
2013-05-08 16:42:00,71.6,52.0,30.01,WNW,290,3.0,-999.0,51,-99.99,,,0.00,weatherlink.com 1.10,2013-05-08 23:42:00,
2013-05-08 16:57:00,72.1,52.0,30.01,NW,304,4.0,-999.0,49,-99.99,,,0.00,weatherlink.com 1.10,2013-05-08 23:57:00,
2013-05-08 17:12:00,72.0,52.0,30.01,West,280,2.0,-999.0,50,-99.99,,,0.00,weatherlink.com 1.10,2013-05-09 00:12:00,
2013-05-08 17:27:00,71.6,52.0,30.01,WNW,296,2.0,-999.0,51,-99.99,,,0.00,weatherlink.com 1.10,2013-05-09 00:27:00,
2013-05-08 17:42:00,70.4,53.0,30.01,NW,318,0.0,-999.0,54,-99.99,,,0.00,weatherlink.com 1.10,2013-05-09 00:42:00,
2013-05-08 17:57:00,70.4,53.0,30.01,WNW,291,0.0,-999.0,54,-99.99,,,0.00,weatherlink.com 1.10,2013-05-09 00:57:00,
2013-05-08 18:12:00,69.9,52.0,30.01,NW,314,0.0,-999.0,54,-99.99,,,0.00,weatherlink.com 1.10,2013-05-09 01:12:00,
2013-05-08 18:27:00,69.8,53.0,30.02,NW,306,4.0,-999.0,55,-99.99,,,0.00,weatherlink.com 1.10,2013-05-09 01:27:00,
2013-05-08 18:42:00,69.3,53.0,30.02,NW,317,0.0,-999.0,56,-99.99,,,0.00,weatherlink.com 1.10,2013-05-09 01:42:00,
2013-05-08 18:57:00,67.8,52.0,30.02,NNW,330,0.0,-999.0,57,-99.99,,,0.00,weatherlink.com 1.10,2013-05-09 01:57:00,
2013-05-08 19:13:00,66.8,52.0,30.02,NNW,330,0.0,-999.0,59,-99.99,,,0.00,weatherlink.com 1.10,2013-05-09 02:13:00,
2013-05-08 19:28:00,66.1,51.0,30.02,WSW,254,0.0,-999.0,59,-99.99,,,0.00,weatherlink.com 1.10,2013-05-09 02:28:00,
2013-05-08 19:43:00,65.0,51.0,30.02,SE,125,0.0,-999.0,61,-99.99,,,0.00,weatherlink.com 1.10,2013-05-09 02:43:00,
2013-05-08 19:58:00,63.4,51.0,30.04,SE,134,3.0,-999.0,64,-99.99,,,0.00,weatherlink.com 1.10,2013-05-09 02:58:00,
2013-05-08 20:12:00,62.3,50.0,30.05,SSE,153,3.0,-999.0,65,-99.99,,,0.00,weatherlink.com 1.10,2013-05-09 03:12:00,
2013-05-08 20:27:00,61.2,50.0,30.05,SSE,158,2.0,-999.0,66,-99.99,,,0.00,weatherlink.com 1.10,2013-05-09 03:27:00,
2013-05-08 20:42:00,60.2,50.0,30.05,SSE,160,4.0,-999.0,68,-99.99,,,0.00,weatherlink.com 1.10,2013-05-09 03:42:00,
2013-05-08 20:57:00,59.5,49.0,30.06,SSE,157,4.0,-999.0,69,-99.99,,,0.00,weatherlink.com 1.10,2013-05-09 03:57:00,
2013-05-08 21:12:00,58.6,49.0,30.07,SE,127,0.0,-999.0,70,-99.99,,,0.00,weatherlink.com 1.10,2013-05-09 04:12:00,
2013-05-08 21:27:00,57.8,49.0,30.07,SE,129,0.0,-999.0,72,-99.99,,,0.00,weatherlink.com 1.10,2013-05-09 04:27:00,
2013-05-08 21:42:00,56.9,48.0,30.07,ESE,108,0.0,-999.0,73,-99.99,,,0.00,weatherlink.com 1.10,2013-05-09 04:42:00,
2013-05-08 21:57:00,56.3,48.0,30.08,ESE,108,2.0,-999.0,75,-99.99,,,0.00,weatherlink.com 1.10,2013-05-09 04:57:00,
2013-05-08 22:12:00,55.9,48.0,30.09,ESE,119,0.0,-999.0,76,-99.99,,,0.00,weatherlink.com 1.10,2013-05-09 05:12:00,
2013-05-08 22:27:00,55.3,48.0,30.09,ESE,109,0.0,-999.0,76,-99.99,,,0.00,weatherlink.com 1.10,2013-05-09 05:27:00,
2013-05-08 22:42:00,54.7,48.0,30.09,SSE,158,0.0,-999.0,78,-99.99,,,0.00,weatherlink.com 1.10,2013-05-09 05:42:00,
2013-05-08 22:57:00,54.2,48.0,30.10,ESE,121,1.0,-999.0,79,-99.99,,,0.00,weatherlink.com 1.10,2013-05-09 05:57:00,
2013-05-08 23:12:00,53.8,48.0,30.10,ESE,121,1.0,-999.0,80,-99.99,,,0.00,weatherlink.com 1.10,2013-05-09 06:12:00,
2013-05-08 23:27:00,53.5,48.0,30.10,ESE,121,2.0,-999.0,81,-99.99,,,0.00,weatherlink.com 1.10,2013-05-09 06:27:00,
2013-05-08 23:42:00,53.2,48.0,30.09,ESE,121,0.0,-999.0,81,-99.99,,,0.00,weatherlink.com 1.10,2013-05-09 06:42:00,
2013-05-08 23:57:00,52.9,48.0,30.09,ESE,121,0.0,-999.0,82,-99.99,,,0.00,weatherlink.com 1.10,2013-05-09 06:57:00,